Satellite: NOAA-11
Catalog number: 19531
Epoch time: 10357.33084668
Element set: 334
Inclination: 098.7628 deg
RA of node: 083.0763 deg
Eccentricity: 0.0010919
Arg of perigee: 334.1991 deg
Mean anomaly: 025.8630 deg
Mean motion: 14.14898448 rev/day
Decay rate: -2.36e-06 rev/day^2
Epoch rev: 14788
Checksum: 327
Satellite: NOAA-12
Catalog number: 21263
Epoch time: 10357.28329721
Element set: 822
Inclination: 098.7584 deg
RA of node: 010.3666 deg
Eccentricity: 0.0012189
Arg of perigee: 342.1571 deg
Mean anomaly: 017.9184 deg
Mean motion: 14.25675789 rev/day
Decay rate: 1.94e-06 rev/day^2
Epoch rev: 1934
Checksum: 311
Satellite: MET-3/5
Catalog number: 21655
Epoch time: 10356.88665390
Element set: 0996
Inclination: 082.5541 deg
RA of node: 175.3196 deg
Eccentricity: 0.0012516
Arg of perigee: 235.4611 deg
Mean anomaly: 124.5295 deg
Mean motion: 13.17024344 rev/day
Decay rate: 5.1e-07 rev/day^2
Epoch rev: 93051
Checksum: 297
Satellite: MET-2/21
Catalog number: 22782
Epoch time: 10356.81255917
Element set: 971
Inclination: 082.5483 deg
RA of node: 102.8171 deg
Eccentricity: 0.0021206
Arg of perigee: 231.2270 deg
Mean anomaly: 128.6999 deg
Mean motion: 13.83652956 rev/day
Decay rate: 4.0e-08 rev/day^2
Epoch rev: 87416
Checksum: 308
Satellite: OKEAN-4
Catalog number: 23317
Epoch time: 10356.65462377
Element set: 0428
Inclination: 082.5382 deg
RA of node: 177.9412 deg
Eccentricity: 0.0021837
Arg of perigee: 345.3121 deg
Mean anomaly: 014.7432 deg
Mean motion: 14.82912217 rev/day
Decay rate: 1.92e-06 rev/day^2
Epoch rev: 87438
Checksum: 298
Satellite: NOAA-14
Catalog number: 23455
Epoch time: 10357.45464575
Element set: 315
Inclination: 098.8665 deg
RA of node: 076.7549 deg
Eccentricity: 0.0010193
Arg of perigee: 061.1786 deg
Mean anomaly: 299.0412 deg
Mean motion: 14.13801891 rev/day
Decay rate: -9.2e-07 rev/day^2
Epoch rev: 82424
Checksum: 318
Satellite: NOAA-15
Catalog number: 25338
Epoch time: 10357.40336895
Element set: 642
Inclination: 098.6376 deg
RA of node: 341.1236 deg
Eccentricity: 0.0009795
Arg of perigee: 242.7805 deg
Mean anomaly: 117.2382 deg
Mean motion: 14.24874212 rev/day
Decay rate: 9.2e-07 rev/day^2
Epoch rev: 65569
Checksum: 322
Satellite: RESURS
Catalog number: 25394
Epoch time: 10356.55976060
Element set: 0683
Inclination: 098.2988 deg
RA of node: 004.3246 deg
Eccentricity: 0.0002248
Arg of perigee: 046.8495 deg
Mean anomaly: 313.2868 deg
Mean motion: 14.24219665 rev/day
Decay rate: 2.1e-07 rev/day^2
Epoch rev: 64716
Checksum: 316
Satellite: FENGYUN1
Catalog number: 25730
Epoch time: 10356.86354361
Element set: 0216
Inclination: 098.8031 deg
RA of node: 317.0866 deg
Eccentricity: 0.0021173
Arg of perigee: 086.3553 deg
Mean anomaly: 273.9978 deg
Mean motion: 14.08487535 rev/day
Decay rate: 8.91e-06 rev/day^2
Epoch rev: 59824
Checksum: 327
Satellite: OKEAN-0
Catalog number: 25860
Epoch time: 10356.70050888
Element set: 0184
Inclination: 097.8593 deg
RA of node: 323.2723 deg
Eccentricity: 0.0001123
Arg of perigee: 111.5564 deg
Mean anomaly: 248.5764 deg
Mean motion: 14.73695310 rev/day
Decay rate: 1.39e-06 rev/day^2
Epoch rev: 61466
Checksum: 299
Satellite: NOAA-16
Catalog number: 26536
Epoch time: 10357.41779547
Element set: 121
Inclination: 099.1588 deg
RA of node: 019.2399 deg
Eccentricity: 0.0010818
Arg of perigee: 162.7932 deg
Mean anomaly: 197.3631 deg
Mean motion: 14.12590216 rev/day
Decay rate: 8.5e-07 rev/day^2
Epoch rev: 52854
Checksum: 323
Satellite: NOAA-17
Catalog number: 27453
Epoch time: 10357.40446163
Element set: 113
Inclination: 098.4058 deg
RA of node: 039.9741 deg
Eccentricity: 0.0010916
Arg of perigee: 306.9141 deg
Mean anomaly: 053.1036 deg
Mean motion: 14.24220584 rev/day
Decay rate: 9.0e-08 rev/day^2
Epoch rev: 44163
Checksum: 275
Satellite: NOAA-18
Catalog number: 28654
Epoch time: 10357.43856697
Element set: 600
Inclination: 098.9755 deg
RA of node: 303.3688 deg
Eccentricity: 0.0013558
Arg of perigee: 238.7355 deg
Mean anomaly: 121.2502 deg
Mean motion: 14.11418332 rev/day
Decay rate: -1.83e-06 rev/day^2
Epoch rev: 28813
Checksum: 319
Satellite: NOAA-19
Catalog number: 33591
Epoch time: 10357.39711285
Element set: 792
Inclination: 098.8106 deg
RA of node: 295.6734 deg
Eccentricity: 0.0014873
Arg of perigee: 112.4459 deg
Mean anomaly: 247.8295 deg
Mean motion: 14.11114056 rev/day
Decay rate: 2.38e-06 rev/day^2
Epoch rev: 9659
Checksum: 331
/EX
SB KEPS @ AMSAT $ORB10357.M
Orbital Elements 10357.MISC
HR AMSAT ORBITAL ELEMENTS FOR MANNED AND MISCELLANEOUS SATELLITES
FROM WA5QGD FORT WORTH,TX December 23, 2010
Send Subscribe/unsubscribe to KEPS at http://www.amsat.org/mailman/listinfo/keps
BID: ORB10357.M
TO ALL RADIO AMATEURS BT
Satellite: HUBBLE
Catalog number: 20580
Epoch time: 10355.61426390
Element set: 690
Inclination: 028.4688 deg
RA of node: 096.1547 deg
Eccentricity: 0.0003452
Arg of perigee: 034.7810 deg
Mean anomaly: 325.3095 deg
Mean motion: 15.01122689 rev/day
Decay rate: 6.49e-06 rev/day^2
Epoch rev: 93294
Checksum: 297
Satellite: ISS
Catalog number: 25544
Epoch time: 10357.88699256
Element set: 513
Inclination: 051.6489 deg
RA of node: 339.5126 deg
Eccentricity: 0.0005277
Arg of perigee: 066.0764 deg
Mean anomaly: 017.4680 deg
Mean motion: 15.72128206 rev/day
Decay rate: 2.0709e-04 rev/day^2
Epoch rev: 69331
Checksum: 317
Satellite: CO-58
Catalog number: 28895
Epoch time: 10357.69177789
Element set: 758
Inclination: 097.9906 deg
RA of node: 235.6049 deg
Eccentricity: 0.0018774
Arg of perigee: 053.1957 deg
Mean anomaly: 307.1022 deg
Mean motion: 14.59984075 rev/day
Decay rate: 2.63e-06 rev/day^2
Epoch rev: 27463
Checksum: 371
Satellite: FALCON
Catalog number: 30776
Epoch time: 10356.96344337
Element set: 0999
Inclination: 035.4346 deg
RA of node: 337.9102 deg
Eccentricity: 0.0001456
Arg of perigee: 350.0105 deg
Mean anomaly: 010.0589 deg
Mean motion: 15.04024407 rev/day
Decay rate: 9.16e-06 rev/day^2
Epoch rev: 20849
Checksum: 282
Satellite: MAST
Catalog number: 31126
Epoch time: 10357.65459746
Element set: 42
Inclination: 097.9144 deg
RA of node: 029.6349 deg
Eccentricity: 0.0094870
Arg of perigee: 357.6384 deg
Mean anomaly: 002.4378 deg
Mean motion: 14.53656922 rev/day
Decay rate: 1.15e-06 rev/day^2
Epoch rev: 19558
Checksum: 323
Satellite: CAPE1
Catalog number: 31130
Epoch time: 10357.54393651
Element set: 62
Inclination: 097.9170 deg
RA of node: 026.5807 deg
Eccentricity: 0.0102797
Arg of perigee: 007.3489 deg
Mean anomaly: 352.9188 deg
Mean motion: 14.52269481 rev/day
Decay rate: 1.25e-06 rev/day^2
Epoch rev: 19514
Checksum: 302
Satellite: COMPASS
Catalog number: 32787
Epoch time: 10357.22084852
Element set: 862
Inclination: 097.8720 deg
RA of node: 059.1577 deg
Eccentricity: 0.0016431
Arg of perigee: 033.1249 deg
Mean anomaly: 327.0981 deg
Mean motion: 14.82088606 rev/day
Decay rate: 6.91e-06 rev/day^2
Epoch rev: 14349
Checksum: 313
Satellite: AAUSAT2
Catalog number: 32788
Epoch time: 10356.12476212
Element set: 0853
Inclination: 097.8736 deg
RA of node: 058.2518 deg
Eccentricity: 0.0016040
Arg of perigee: 038.1485 deg
Mean anomaly: 322.0887 deg
Mean motion: 14.82244396 rev/day
Decay rate: 4.92e-06 rev/day^2
Epoch rev: 14334
Checksum: 307
Satellite: DO-64
Catalog number: 32789
Epoch time: 10356.85118173
Element set: 0871
Inclination: 097.8821 deg
RA of node: 059.6792 deg
Eccentricity: 0.0015962
Arg of perigee: 034.2843 deg
Mean anomaly: 325.9375 deg
Mean motion: 14.82504825 rev/day
Decay rate: 4.89e-06 rev/day^2
Epoch rev: 14345
Checksum: 345
Satellite: CO-66
Catalog number: 32791
Epoch time: 10355.65168626
Element set: 0855
Inclination: 097.8745 deg
RA of node: 057.5995 deg
Eccentricity: 0.0016808
Arg of perigee: 037.0437 deg
Mean anomaly: 323.1910 deg
Mean motion: 14.81835138 rev/day
Decay rate: 2.19e-06 rev/day^2
Epoch rev: 14321
Checksum: 327
Satellite: RS-30
Catalog number: 32953
Epoch time: 10357.76197650
Element set: 325
Inclination: 082.5017 deg
RA of node: 271.7905 deg
Eccentricity: 0.0020074
Arg of perigee: 049.6696 deg
Mean anomaly: 310.6132 deg
Mean motion: 12.43010009 rev/day
Decay rate: 1.0e-07 rev/day^2
Epoch rev: 11729
Checksum: 267
Satellite: TACSAT-3
Catalog number: 35001
Epoch time: 10356.92510161
Element set: 0479
Inclination: 040.4553 deg
RA of node: 158.6029 deg
Eccentricity: 0.0023283
Arg of perigee: 335.5216 deg
Mean anomaly: 024.4493 deg
Mean motion: 15.44124914 rev/day
Decay rate: 5.250e-05 rev/day^2
Epoch rev: 08979
Checksum: 282
Satellite: PHARMSAT
Catalog number: 35002
Epoch time: 10356.82844030
Element set: 430
Inclination: 040.4690 deg
RA of node: 156.7120 deg
Eccentricity: 0.0025668
Arg of perigee: 337.8956 deg
Mean anomaly: 022.0752 deg
Mean motion: 15.44404603 rev/day
Decay rate: 5.302e-05 rev/day^2
Epoch rev: 8980
Checksum: 266
Satellite: HAWKSAT1
Catalog number: 35003
Epoch time: 10357.57449773
Element set: 469
Inclination: 040.4586 deg
RA of node: 139.5268 deg
Eccentricity: 0.0023543
Arg of perigee: 007.1879 deg
Mean anomaly: 352.9271 deg
Mean motion: 15.50279094 rev/day
Decay rate: 1.4793e-04 rev/day^2
Epoch rev: 9006
Checksum: 320
Satellite: CP6
Catalog number: 35004
Epoch time: 10357.54283534
Element set: 471
Inclination: 040.4594 deg
RA of node: 136.5733 deg
Eccentricity: 0.0022815
Arg of perigee: 012.5750 deg
Mean anomaly: 347.5629 deg
Mean motion: 15.52265317 rev/day
Decay rate: 1.8726e-04 rev/day^2
Epoch rev: 9008
Checksum: 293
Satellite: AEROCUB3
Catalog number: 35005
Epoch time: 10357.68378788
Element set: 579
Inclination: 040.4582 deg
RA of node: 109.7681 deg
Eccentricity: 0.0023306
Arg of perigee: 041.0680 deg
Mean anomaly: 319.1898 deg
Mean motion: 15.90445506 rev/day
Decay rate: 4.26724e-03 rev/day^2
Epoch rev: 9039
Checksum: 326
